www.pogodaiklimat.ru

Погода и климат >> Архив погоды >> Португалия >> Кастело Бранко


ПОГОДА в Кастело Бранко

  • Прогноз погоды в Кастело Бранко
  • Монитор погоды в Кастело Бранко

АРХИВ ПОГОДЫ в Кастело Бранко

Время (UTC), дата Ветер
(напр.,м/с)
 
Видим.   Явления Облачность Т
(С)
Тd
(С)
f
(%)
Тe
(С)
Тes
(С)
Комфортность P
(гПа)
Po
(гПа)
Тmin
(С)
Tmax
(С)
R
(мм)
R24
(мм)
S
(см)
16 9.06 СЗ 6-11
{11}
н/о н/о +22.8 +6.0 34 +23 +23 комфорт 1016.5 972.5
17 9.06 СЗ 7
{13}
н/о н/о +22.1 +6.4 36 +23 +23 комфорт 1016.9 972.8
18 9.06 З 6-10
{12}
н/о н/о +21.0 +7.6 42 +22 +22 комфорт 1017.4 973.1 +25.2
19 9.06 З 6-10
{11}
н/о н/о +19.0 +7.3 47 +19 +19 1018.1 973.5
20 9.06 СЗ 4-7
{10}
н/о н/о +16.8 +7.4 54 +16 +16 1018.7 973.7
21 9.06 З 4-7
{7}
н/о н/о +15.4 +7.8 60 +15 +15 1019.4 974.2
22 9.06 З 3
{6}
н/о н/о +14.3 +7.9 65 +13 +13 1019.8 974.4
23 9.06 З 3
{5}
н/о н/о +13.4 +8.1 70 +12 +12 1020.3 974.7
00 10.06 З 2 н/о н/о +12.7 +7.9 73 +12 +12 1020.5 974.8
01 10.06 З 2 н/о н/о +12.2 +8.0 75 +11 +11 1020.3 974.5
02 10.06 З 2 н/о н/о +12.2 +8.3 77 +11 +11 1020.0 974.3
03 10.06 З 2 н/о н/о +11.5 +8.1 80 +10 +10 1019.4 973.6
04 10.06 З 2 н/о н/о +11.1 +7.7 80 +10 +10 1019.5 973.6
05 10.06 З 2 н/о н/о +10.4 +7.3 81 +9 +9 1019.5 973.6
06 10.06 З 2
{5}
н/о н/о +11.2 +7.9 80 +10 +10 1019.7 973.9 +10.1
07 10.06 З 2 н/о н/о +14.1 +8.3 68 +14 +14 1019.6 974.2
08 10.06 СЗ 2 н/о н/о +16.6 +7.8 56 +17 +17 1019.3 974.3
09 10.06 С 2-6
{6}
30 км 5/1 500 м
[Cu hum Ci fib]
+18.9 +6.3 44 +20 +28 1018.7 974.0
10 10.06 -6
{6}
н/о н/о +20.8 +6.0 38 1018.2 973.9
11 10.06 СЗ 5-9
{9}
н/о н/о +21.7 +5.9 36 +22 +22 комфорт 1017.8 973.6
12 10.06 СЗ 3-6
{9}
н/о н/о +23.6 +4.7 29 +23 +23 комфорт 1016.8 972.9
13 10.06 З 3-6
{8}
н/о н/о +24.6 +6.1 30 +24 +24 комфорт 1015.8 972.1
14 10.06 СЗ 3-8
{8}
н/о н/о +24.7 +5.6 29 +24 +24 комфорт 1015.5 971.8
15 10.06 З 4-7
{9}
н/о н/о +25.2 +3.1 24 +24 +24 комфорт 1014.7 971.2
16 10.06 СЗ 5-8
{9}
н/о н/о +24.7 +3.7 26 +24 +24 комфорт 1014.5 970.9
17 10.06 З 6-10
{12}
н/о н/о +23.0 +5.1 31 +23 +23 комфорт 1014.5 970.7
18 10.06 СЗ 7 н/о н/о +22.0 +6.0 35 +23 +23 комфорт 1014.5 970.5 +26.0
19 10.06 З 6-10
{11}
н/о н/о +18.7 +5.9 43 +19 +19 1015.1 970.5
20 10.06 З 5
{11}
н/о н/о +16.3 +5.9 50 +15 +15 1015.6 970.7
21 10.06 СЗ 5-8
{9}
н/о н/о +15.4 +5.0 50 +14 +14 1016.3 971.3
22 10.06 З 5
{8}
н/о н/о +14.2 +4.7 53 +13 +13 1016.3 971.1
23 10.06 З 5-9
{9}
н/о н/о +14.0 +4.9 54 +12 +12 1016.0 970.8
00 11.06 З 5 н/о н/о +13.2 +4.2 54 +11 +11 1015.7 970.3
01 11.06 З 3
{7}
н/о н/о +12.5 +5.6 63 +11 +11 1015.4 969.9
02 11.06 З 4
{6}
н/о н/о +12.2 +6.3 67 +10 +10 1015.3 969.8
03 11.06 З 4
{6}
н/о н/о +12.0 +6.3 68 +10 +10 1015.1 969.6
04 11.06 З 2
{5}
н/о н/о +11.0 +6.4 73 +10 +10 1015.0 969.3
05 11.06 З 2 н/о н/о +11.1 +6.0 71 +10 +10 1015.0 969.3
06 11.06 С 1 н/о н/о +12.4 +5.9 65 +13 +13 1015.1 969.7 +10.8
07 11.06 н/о н/о +14.7 +7.3 61 1014.9 969.8
08 11.06 СЗ 2
{5}
25 км 1/1 450 м
[Cu Sc Ci fib]
+16.3 +7.2 55 +16 +22 1014.7 969.9
09 11.06 С 5-8
{10}
25 км 1/1 450 м
[Cu Sc]
+18.7 +4.9 40 +19 +24 1014.3 969.8
10 11.06 СВ 5-8
{12}
25 км 1/1 500 м
[Cu Sc]
+19.6 +4.5 37 +20 +27 1014.5 970.2
11 11.06 С 5-8
{8}
25 км 1/1 500 м
[Cu Sc]
+20.7 +3.8 33 +21 +30 комфорт 1014.2 970.0
12 11.06 С 5-8
{13}
25 км 1/1 500 м
[Cu Sc]
+21.4 +3.1 30 +21 +31 комфорт 1014.0 969.9
13 11.06 С 7-12
{12}
25 км 1/1 600 м
[Cu hum]
+22.1 -0.6 22 +21 +26 комфорт 1013.9 969.9
14 11.06 С 6-11
{12}
25 км 1/1 600 м
[Cu hum]
+23.0 0.0 22 +22 +29 комфорт 1013.4 969.5
15 11.06 С 6-10
{11}
25 км 1/1 600 м
[Cu hum]
+22.9 -0.5 21 +22 +27 комфорт 1013.1 969.2
16 11.06 С 5-10
{12}
25 км 1/1 600 м
[Cu hum]
+24.0 -1.5 18 +22 +27 комфорт 1012.5 968.9
17 11.06 С 6-11
{13}
25 км 1/1 600 м
[Cu hum]
+23.3 -1.7 19 +22 +24 комфорт 1012.6 968.8
18 11.06 С 5-8
{10}
25 км 1/1 600 м
[Cu hum]
+23.0 -1.7 19 +22 +23 комфорт 1012.5 968.7 +24.3
19 11.06 С 4-7
{10}
н/о н/о +21.9 -2.0 20 +21 +21 комфорт 1012.9 968.9
20 11.06 С 3
{7}
н/о н/о +19.8 -0.3 26 +20 +20 1013.4 969.1
21 11.06 СЗ 3
{6}
н/о н/о +16.6 +5.9 49 +16 +16 1014.6 969.8
22 11.06 СЗ 3
{6}
н/о н/о +15.6 +6.4 54 +15 +15 1015.1 970.2
23 11.06 СЗ 3
{6}
н/о н/о +14.5 +5.5 55 +14 +14 1015.3 970.1
00 12.06 СЗ 3
{5}
н/о н/о +14.4 +5.3 54 +14 +14 1015.2 970.0
01 12.06 С 4-6
{6}
н/о н/о +13.8 +3.1 48 +13 +13 1014.8 969.5
02 12.06 С 2
{6}
н/о н/о +12.7 +2.4 49 +12 +12 1014.7 969.3
03 12.06 С 2
{5}
н/о н/о +12.5 +2.8 52 +12 +12 1014.5 969.0
04 12.06 С 2
{5}
н/о н/о +11.7 +2.6 54 +11 +11 1014.5 969.0
05 12.06 С 3
{5}
н/о н/о +11.7 +2.1 52 +10 +10 1014.6 969.0
06 12.06 С 3-6
{6}
н/о н/о +12.6 +2.5 50 +11 +11 1014.8 969.3 +11.1
07 12.06 С 5-7
{8}
н/о н/о +14.3 +2.3 44 +13 +13 1014.4 969.2
08 12.06 С 4-6
{8}
25 км ясно +15.9 +2.3 40 +15 +19 1014.3 969.4
09 12.06 СВ 4-6
{6}
25 км ясно +18.0 +2.7 36 +18 +25 1014.0 969.4
10 12.06
{6}
25 км ясно +19.5 +1.5 30 1013.4 969.1
11 12.06 С 3
{5}
25 км ясно +21.1 -1.2 22 +21 +36 комфорт 1012.7 968.7
12 12.06 С 1
{6}
25 км 1/1 600 м
[Cu hum]
+22.8 +1.0 24 +22 +43 комфорт 1012.0 968.2
13 12.06 -6
{6}
30 км 1/1 600 м
[Cu hum]
+23.2 -1.1 20 1011.0 967.3
14 12.06
{5}
30 км 1/1 600 м
[Cu hum]
+24.8 -1.5 17 1009.9 966.4
15 12.06 С 2
{6}
30 км 1/1 600 м
[Cu hum]
+25.3 -1.8 17 +23 +37 комфорт 1009.2 965.9
16 12.06 З 3-6
{10}
30 км 1/1 660 м
[Cu hum]
+25.5 +0.9 20 +24 +32 комфорт 1008.4 965.2
17 12.06 СЗ 5-9
{9}
30 км 1/1 660 м
[Cu hum]
+24.7 +3.5 25 +24 +27 комфорт 1008.1 964.7
18 12.06 СЗ 6-10
{11}
25 км ясно +21.9 +5.5 34 +22 +23 комфорт 1008.8 965.0 +26.4
19 12.06 СЗ 7-10
{11}
н/о н/о +19.1 +5.5 41 +19 +19 1009.7 965.5
20 12.06 З 5-8
{9}
н/о н/о +16.2 +4.1 44 +15 +15 1010.6 965.9
21 12.06 З 4
{7}
н/о н/о +14.3 +5.0 54 +13 +13 1011.1 966.1
22 12.06 З 3
{7}
н/о н/о +12.9 +5.0 59 +12 +12 1011.4 966.1
23 12.06 З 3
{5}
н/о н/о +11.8 +5.4 65 +10 +10 1011.4 966.0
00 13.06 З 3-5
{5}
н/о н/о +10.8 +5.1 68 +9 +9 1011.4 965.8
01 13.06 З 3
{6}
н/о н/о +10.1 +5.2 72 +8 +8 1011.1 965.5
02 13.06 З 3
{5}
н/о н/о +10.1 +6.0 76 +8 +8 1011.0 965.3
03 13.06 З 2 н/о н/о +9.7 +6.0 78 +8 +8 1010.9 965.2
04 13.06 З 3 н/о н/о +9.7 +6.5 80 +7 +7 1010.8 965.1
05 13.06 З 2 н/о н/о +9.6 +6.2 79 +8 +8 1010.9 965.2
06 13.06 З 2 н/о н/о +10.4 +5.7 73 +9 +9 1011.3 965.7 +9.2
07 13.06 СЗ 2 н/о н/о +12.6 +5.6 62 +12 +12 1011.2 965.9
08 13.06 25 км ясно +15.1 +5.3 52 1011.4 966.5
09 13.06 С 2 25 км 1/1 600 м
[Cu hum]
+17.4 +5.5 45 +18 +27 1011.0 966.4
10 13.06 С 1 н/о н/о +19.4 +5.7 41 +21 +21 комфорт 1010.6 966.4
11 13.06 25 км 1/1 600 м
[Cu hum]
+20.5 +5.7 38 1010.1 966.0
12 13.06 ЮЗ 3-6
{6}
25 км 1/1 600 м
[Cu hum]
+20.9 +4.1 33 +22 +37 комфорт 1009.8 965.8
13 13.06 С 3-7
{7}
25 км 1/1 600 м
[Cu hum Ci sp]
+22.9 +3.6 28 +23 +38 комфорт 1009.0 965.4
14 13.06 С 2
{10}
25 км 1/1 600 м
[Cu hum Ci sp]
+24.3 +3.9 27 +24 +40 комфорт 1008.3 964.8
15 13.06 З 5-9
{9}
25 км 1/1 600 м
[Cu hum Ci sp]
+24.3 +5.5 30 +24 +31 комфорт 1008.1 964.7
16 13.06 СЗ 5-8
{9}
25 км 1/1 600 м
[Cu hum Ci sp]
+23.7 +4.3 28 +23 +28 комфорт 1008.2 964.7
17 13.06 СЗ 5-9
{9}
25 км 1/1 600 м
[Cu hum Ci sp]
+22.7 +3.6 29 +23 +26 комфорт 1008.3 964.7
18 13.06 З 6-10
{10}
25 км 1/1 600 м
[Cu hum Ci sp]
+20.8 +4.6 35 +21 +22 комфорт 1008.8 964.8 +25.5
19 13.06 З 7 н/о н/о +18.2 +4.2 39 +18 +18 1009.8 965.4
20 13.06 З 5-8
{10}
н/о н/о +15.6 +5.2 50 +15 +15 1010.8 966.1
21 13.06 З 5 н/о н/о +13.9 +5.5 57 +12 +12 1011.8 966.7
22 13.06 З 3
{7}
н/о н/о +12.5 +6.0 65 +11 +11 1012.6 967.3
23 13.06 З 3
{5}
н/о н/о +11.4 +5.8 68 +10 +10 1012.8 967.3
00 14.06 З 3
{5}
н/о н/о +10.6 +6.1 74 +9 +9 1012.8 967.1
01 14.06 З 3
{5}
н/о н/о +10.1 +5.9 75 +8 +8 1012.7 966.9
02 14.06 З 3 н/о н/о +9.8 +6.1 78 +8 +8 1012.8 967.1
03 14.06 З 2 н/о н/о +9.5 +5.6 77 +8 +8 1012.9 967.1
04 14.06 З 2 н/о н/о +8.8 +5.4 79 +7 +7 1012.9 967.0
05 14.06 З 3-5
{5}
н/о н/о +8.8 +5.4 79 +6 +6 1013.3 967.3
06 14.06 З 3
{5}
н/о н/о +9.7 +5.8 77 +8 +8 1013.5 967.7 +8.6
07 14.06 З 4-6
{6}
н/о н/о +12.0 +6.1 67 +10 +10 1013.6 968.1
08 14.06 З 4-6
{6}
25 км 4/1 450 м
[Cu Sc Ac und]
+14.0 +5.2 55 +13 +16 1014.0 968.8
09 14.06 С 2
{6}
25 км 1/1 450 м
[Cu hum Ac trans]
+16.4 +4.2 44 +17 +26 1014.1 969.3
10 14.06 З 4-8
{8}
25 км 1/1 450 м
[Cu Sc]
+18.5 +2.8 35 +19 +27 1014.3 969.8
11 14.06 СЗ 6-9
{11}
25 км 4/4 500 м
[Cu Sc]
+18.0 +3.0 37 +17 +22 1014.8 970.1
12 14.06 З 6-9
{10}
25 км 8/8 450 м
[Cu Sc]
+18.1 +4.5 41 +18 +19 1015.4 970.7
13 14.06 З 6-10
{12}
25 км 8/8 450 м
[Cu Sc]
+18.5 +4.8 40 +18 +20 1015.4 970.8
14 14.06 З 5-10
{10}
25 км 8/8 450 м
[Cu Sc]
+18.6 +5.9 43 +19 +20 1015.5 971.0
15 14.06 З 6-10
{11}
25 км 9/4 450 м
[Cu Sc Ac und Ci sp]
+19.1 +5.4 41 +19 +21 1015.6 971.1
16 14.06 З 6-10
{10}
25 км 9/4 450 м
[Cu Sc Ac und Cs]
+18.0 +5.4 43 +17 +19 1015.9 971.2
17 14.06 З 6-9
{12}
25 км 9/4 450 м
[Cu Sc Ac und]
+17.7 +7.5 51 +17 +18 1016.2 971.5
18 14.06 З 5
{10}
15 км 5/3 450 м
[Cu Sc Ac trans Cs]
+16.7 +6.5 51 +16 +17 1017.0 972.1 +20.8
19 14.06 З 4-6
{8}
н/о н/о +17.2 +6.5 49 +17 +17 1017.5 972.6
20 14.06 СЗ 3
{9}
н/о н/о +14.9 +6.6 58 +14 +14 1018.5 973.2
21 14.06 З 2
{5}
н/о н/о +14.1 +6.9 62 +14 +14 1019.4 974.0
22 14.06 З 3
{5}
н/о н/о +13.3 +6.7 64 +12 +12 1019.8 974.3
23 14.06 З 3
{5}
н/о н/о +12.1 +7.1 71 +11 +11 1020.5 974.7
00 15.06 З 3 н/о н/о +11.5 +7.1 74 +10 +10 1020.5 974.6
01 15.06 З 3
{5}
н/о н/о +11.0 +7.3 78 +9 +9 1020.5 974.6
02 15.06 З 2 н/о н/о +10.2 +7.2 82 +9 +9 1020.6 974.6
03 15.06 З 2 н/о н/о +9.8 +7.6 86 +8 +8 1020.6 974.5
04 15.06 З 2 н/о н/о +9.7 +7.6 87 +8 +8 1020.4 974.3
05 15.06 СЗ 1 н/о н/о +8.5 +7.6 94 +8 +8 1021.1 974.7
06 15.06 З 1 н/о н/о +10.2 +8.3 88 +10 +10 1021.1 975.1 +8.3
07 15.06 СЗ 1 н/о н/о +12.7 +8.0 73 +13 +13 1021.3 975.6
08 15.06 н/о н/о +15.2 +7.2 59 1021.3 976.0
09 15.06 С 1
{5}
н/о н/о +17.3 +6.3 48 +18 +18 1020.9 975.9
10 15.06 С 1
{5}
н/о н/о +19.6 +6.7 43 +21 +21 комфорт 1020.7 976.1
11 15.06
{5}
н/о н/о +20.2 +5.3 38 1020.5 975.9
12 15.06 С 3
{6}
н/о н/о +21.4 +4.5 33 +22 +22 комфорт 1020.0 975.7
13 15.06
{5}
н/о н/о +21.9 +4.1 31 1019.4 975.1
14 15.06 С 2
{5}
н/о н/о +23.3 +3.9 28 +23 +23 комфорт 1018.6 974.6
15 15.06 С 2 н/о н/о +24.5 +3.9 26 +24 +24 комфорт 1018.0 974.2
16 15.06
{5}
н/о н/о +24.3 +5.7 30 1017.3 973.5
17 15.06 н/о н/о +24.7 +5.1 28 1016.6 972.9
18 15.06 С 1
{5}
н/о н/о +24.9 +5.0 28 +24 +24 комфорт 1016.5 972.8 +25.5
19 15.06 ЮЗ 4-6
{6}
н/о н/о +23.2 +7.7 37 +24 +24 комфорт 1016.8 972.8
20 15.06 З 4-6
{7}
н/о н/о +19.6 +8.7 49 +21 +21 комфорт 1017.7 973.2
21 15.06 З 3-5
{6}
н/о н/о +17.3 +8.5 56 +17 +17 1018.7 973.8
22 15.06 З 3
{5}
н/о н/о +16.1 +7.9 58 +16 +16 1019.2 974.1
23 15.06 З 3
{5}
н/о н/о +15.1 +7.8 62 +14 +14 1019.3 974.1
00 16.06 З 2 н/о н/о +15.0 +7.7 62 +15 +15 1019.0 973.7
01 16.06 З 2 н/о н/о +14.6 +7.9 64 +14 +14 1018.6 973.3
02 16.06 З 2 н/о н/о +13.7 +7.8 68 +13 +13 1018.3 972.8
03 16.06 З 2 н/о н/о +14.0 +7.9 67 +14 +14 1017.9 972.6
04 16.06 З 2 н/о н/о +13.9 +7.6 66 +13 +13 1017.9 972.5
05 16.06 З 2 н/о н/о +13.1 +7.9 71 +12 +12 1018.3 972.8
06 16.06 СЗ 1 н/о н/о +13.7 +8.2 69 +14 +14 1018.2 972.8 +12.7
07 16.06 С 1 н/о н/о +18.3 +7.6 50 +20 +20 1017.9 973.2
08 16.06 н/о н/о +20.6 +8.5 46 1017.7 973.4
09 16.06 С 2 30 км 9/0 2000 м
[Ac lent Cs]
+21.8 +6.6 37 +23 +30 комфорт 1017.7 973.5
10 16.06 н/о н/о +23.3 +6.7 34 1017.4 973.4
11 16.06 С 2 н/о н/о +24.1 +7.0 33 +24 +24 комфорт 1016.9 973.0
12 16.06 С 2
{5}
н/о н/о +25.2 +5.8 29 +25 +25 комфорт 1016.4 972.7
13 16.06
{5}
н/о н/о +27.5 +4.8 23 1015.6 972.3
14 16.06 ЮЗ 3-6
{7}
н/о н/о +27.8 +5.8 25 +27 +27 жарко 1015.1 971.9

 

Местоположение метеостанции Кастело Бранко (Португалия): широта 39.83 долгота -7.48 высота над уровнем моря 384 м.

В архиве по умолчанию представлена погода в Кастело Бранко за последнюю неделю. Архивные данные за месяц целиком и за предыдущие месяцы, начиная с января 2011 года, Вы можете получить, выбрав интересующий диапазон дат из раскрывающегося списка и нажав кнопку "Ввод!".


*Определитесь, кто Вы:
робот инопланетянин человек

Внимание! Время в таблицах - всемирное. Для получения местного времени необходимо прибавить поправку, которая равна 0 ч.

Смотрите также архив погоды в соседних городах и на ближайших метеорологических станциях:

Погода в Валенсия-де-Алькантаре (Испания) (50 км)
Погода в Порталегре (Португалия) (61 км)
Погода в Обсерватории Penhas Douradas (Португалия) (66 км)
Погода в Кориа (Испания) (81 км)
Погода в Коимбре (Португалия) (92 км)
Погода в Визеу (Португалия) (105 км)
Погода в Касересе (Испания) (106 км)
Погода в Саэлисес-эль-Чико (Испания) (116 км)
Погода в Бадахосе (Испания) (120 км)
Погода в Монте-Реале (Португалия) (120 км)

Пояснения к столбцам:

Ветер - указаны скорость ветра в м/с - средняя за 10 мин, порывы в срок и между сроками (в фигурных скобках) и направление, откуда дует ветер: С - северный, СВ - северо-восточный, В - восточный, ЮВ - юго-восточный, Ю - южный, ЮЗ - юго-западный, З - западный, СЗ - северо-западный.
Видимость - горизонтальная дальность видимости в метрах или километрах. При видимости от 1 до 10 км при отсутствии осадков обычно наблюдается дымка, при ухудшении видимости до 1 км и менее - туман. В сухую погоду видимость может ухудшаться дымом, пылью или мглою.
Явления - указаны атмосферные явления, наблюдавшиеся в срок или в последний час перед сроком; фигурными скобками обозначены явления, наблюдавшиеся между сроками (за 1-3 часа до срока); квадратными скобками обозначены град или гололедные отложения с указанием их диаметра в мм.
Облачность - указаны через наклонную черту общая и нижняя облачность в баллах и высота нижней границы облаков в метрах; квадратными скобками обозначены формы облаков: Ci - перистые, Cs - перисто-слоистые, Cc - перисто-кучевые, Ac - высококучевые, As - высокослоистые, Sc - слоисто-кучевые, Ns - слоисто-дождевые, Cu - кучевые, Cb - кучево-дождевые. Подробнее классификацию облаков см. в Атласе облаков (PDF).
T - Температура воздуха - температура, измеренная на высоте 2 м над землей.
Td - Температура точки росы - температура, при понижении до которой содержащийся в воздухе водяной пар достигнет насыщения.
f - Относительная влажность воздуха - влажноcть воздуха, измеренная на высоте 2 м над землей.
Te - Эффективная температура - температура, которую ощущает одетый по сезону человек в тени. Характеристика душности погоды. При расчете учитывается влияние влажности воздуха и скорости ветра на теплоощущения человека.
Tes - Эффективная температура на солнце - температура, которую ощущает человек, с поправкой на солнечный нагрев. Характеристика знойности погоды. Зависит от высоты солнца над горизонтом, облачности и скорости ветра. Ночью, в пасмурную погоду, а также при ветре 12 м/с и более поправка равна нулю.
P - Атмосферное давление - приведенное к уровню моря атмосферное давление.
Po - Атмосферное давление - измеренное на уровне метеостанции атмосферное давление.
Tmin - Минимальная температура - минимум температуры воздуха на высоте 2 м над землей.
Tmax - Максимальная температура - максимум температуры воздуха на высоте 2 м над землей.
R - Количество осадков - Количество выпавших осадков за период времени, мм. При наведении курсора мыши на число - период времени, за который выпало указанное количество осадков.
R24 - Количество осадков - Количество выпавших осадков за 24 часа, мм.
S - Снежный покров - Высота снежного покрова, см. При наведении курсора мыши на число - состояние снежного покрова и степень покрытия местности в баллах.